DW7854 Weather Reports


time (UTC)temp
C
wind
direction
speed
KPH
gust
KPH
rain 1hr
cm
rain 24hr
cm
rain mn
cm
humidity
%
barometer
mb
20260505222032 28 191 1.6 4.8 0.00 0.00 0.00 71 1002.8
20260505221502 28 180 0.0 9.7 0.00 0.00 0.00 71 1002.9
20260505221132 28 193 3.2 9.7 0.00 0.00 0.00 71 1002.9
20260505220232 28 195 4.8 9.7 0.00 0.00 0.00 70 1003.1
20260505220003 28 193 3.2 14.5 0.00 0.00 0.00 70 1003.2
20260505215332 28 211 4.8 16.1 0.00 0.00 0.00 70 1003.4
20260505214606 28 209 4.8 14.5 0.00 0.00 0.00 71 1003.5
20260505214432 28 203 4.8 9.7 0.00 0.00 0.00 71 1003.5
20260505213532 28 190 3.2 9.7 0.00 0.00 0.00 71 1003.2
20260505213103 27 207 3.2 8.0 0.00 0.00 0.00 70 1003.3
20260505212632 28 189 3.2 11.3 0.00 0.00 0.00 71 1003.3
20260505211605 27 247 1.6 14.5 0.00 0.00 0.00 71 1003.4
20260505210831 27 177 4.8 16.1 0.00 0.00 0.00 72 1003.5
20260505210004 27 170 1.6 11.3 0.00 0.00 0.00 75 1003.4
20260505205932 27 179 4.8 12.9 0.00 0.00 0.00 75 1003.3
20260505205032 27 169 6.4 14.5 0.00 0.00 0.00 72 1003.1
20260505204506 27 200 6.4 11.3 0.00 0.00 0.00 71 1003.4
20260505204132 27 186 6.4 12.9 0.00 0.00 0.00 71 1003.5
20260505203232 27 189 4.8 12.9 0.00 0.00 0.00 70 1003.5
20260505203005 27 237 3.2 9.7 0.00 0.00 0.00 69 1003.5
20260505202332 27 175 8.0 14.5 0.00 0.00 0.00 70 1003.7
20260505201508 27 194 8.0 17.7 0.00 0.00 0.00 69 1003.6
20260505201432 27 185 9.7 19.3 0.00 0.00 0.00 71 1003.6
20260505200531 28 177 9.7 17.7 0.00 0.00 0.00 69 1003.5
20260505200011 28 158 9.7 17.7 0.00 0.00 0.00 70 1003.6
20260505194732 28 174 6.4 17.7 0.00 0.00 0.00 71 1003.7
20260505194615 27 170 8.0 12.9 0.00 0.00 0.00 73 1003.7
20260505193832 27 171 8.0 17.7 0.00 0.00 0.00 75 1004.0
20260505193105 26 118 8.0 17.7 0.00 0.00 0.00 75 1004.3
20260505192931 26 178 8.0 17.7 0.00 0.00 0.00 76 1004.2
20260505192031 26 175 8.0 19.3 0.00 0.00 0.00 76 1004.2
20260505191507 26 170 4.8 19.3 0.00 0.00 0.00 77 1004.3
20260505191132 26 173 9.7 17.7 0.00 0.00 0.00 76 1004.0
20260505190231 26 177 8.0 17.7 0.00 0.00 0.00 76 1004.4
20260505190005 26 185 8.0 17.7 0.00 0.00 0.00 77 1004.3
20260505185331 26 166 8.0 12.9 0.00 0.00 0.00 76 1003.9
20260505184608 26 171 8.0 19.3 0.00 0.00 0.00 76 1003.6
20260505184432 26 173 11.3 19.3 0.00 0.00 0.00 75 1003.7
20260505183531 26 178 11.3 25.7 0.00 0.00 0.00 77 1003.5
20260505183110 25 178 12.9 22.5 0.00 0.00 0.00 78 1003.7
20260505182631 25 170 9.7 19.3 0.00 0.00 0.00 81 1003.7
20260505181732 24 169 9.7 14.5 0.00 0.00 0.00 81 1004.6
20260505181607 24 162 8.0 20.9 0.00 0.00 0.00 80 1004.7
20260505180832 24 169 9.7 16.1 0.00 0.00 0.00 82 1004.8
20260505180004 23 161 9.7 17.7 0.00 0.00 0.00 82 1004.8
20260505175932 24 175 9.7 17.7 0.00 0.00 0.00 82 1004.8
20260505175031 23 167 9.7 17.7 0.00 0.00 0.00 82 1004.9
20260505174504 23 169 6.4 17.7 0.00 0.00 0.00 83 1004.9
20260505174131 23 177 8.0 17.7 0.00 0.00 0.00 83 1004.8
20260505173231 23 179 9.7 19.3 0.00 0.00 0.00 84 1004.8
20260505173030 23 196 8.0 19.3 0.00 0.00 0.00 83 1004.8
20260505172331 23 175 8.0 16.1 0.00 0.00 0.00 84 1004.7
20260505171504 22 194 8.0 14.5 0.00 0.00 0.00 85 1004.9
20260505171431 23 172 9.7 14.5 0.00 0.00 0.00 85 1004.9
20260505170532 22 174 9.7 17.7 0.00 0.00 0.00 85 1004.9
20260505170004 22 183 8.0 14.5 0.00 0.00 0.00 86 1005.0
20260505165632 22 182 9.7 19.3 0.00 0.00 0.00 85 1004.9
20260505164732 22 161 9.7 16.1 0.00 0.00 0.00 86 1005.0
20260505164510 22 161 9.7 16.1 0.00 0.00 0.00 87 1005.0
20260505163832 22 178 9.7 16.1 0.00 0.00 0.00 87 1005.1
20260505163106 22 200 6.4 17.7 0.00 0.00 0.00 87 1005.1
20260505162931 22 168 9.7 17.7 0.00 0.00 0.00 87 1004.8
20260505162032 22 174 9.7 17.7 0.00 0.00 0.00 88 1004.9
20260505161604 21 186 9.7 19.3 0.00 0.00 0.00 88 1004.9
20260505161131 21 168 9.7 19.3 0.00 0.00 0.00 88 1004.8
20260505160231 21 170 9.7 17.7 0.00 0.00 0.00 88 1004.9
20260505153009 21 182 9.7 16.1 0.00 0.00 0.00 88 1005.2
20260505152631 21 163 8.0 12.9 0.00 0.00 0.00 89 1005.2
20260505151732 21 165 8.0 14.5 0.00 0.00 0.00 89 1005.5
20260505151512 20 136 6.4 12.9 0.00 0.00 0.00 89 1005.5
20260505150831 21 171 9.7 16.1 0.00 0.00 0.00 89 1005.5
20260505140532 20 163 9.7 19.3 0.00 0.00 0.00 89 1005.4
20260505130231 20 169 6.4 12.9 0.00 0.00 0.00 89 1005.0
20260505130104 19 188 8.0 12.9 0.00 0.00 0.00 89 1005.0
20260505124510 19 161 6.4 12.9 0.00 0.00 0.00 88 1005.1
20260505123531 20 167 6.4 16.1 0.00 0.00 0.00 88 1005.2
20260505123005 19 171 6.4 16.1 0.00 0.00 0.00 88 1005.1
20260505122631 20 173 8.0 16.1 0.00 0.00 0.00 88 1005.0
20260505121503 19 150 4.8 11.3 0.00 0.00 0.00 87 1005.0
20260505120831 20 168 8.0 12.9 0.00 0.00 0.00 87 1004.9
20260505120106 20 182 6.4 14.5 0.00 0.00 0.00 86 1004.7
20260505115031 20 175 4.8 9.7 0.00 0.00 0.00 86 1004.8
20260505114603 19 167 4.8 11.3 0.00 0.00 0.00 86 1004.8
20260505114131 20 174 6.4 12.9 0.00 0.00 0.00 86 1004.8
20260505113231 20 170 8.0 14.5 0.00 0.00 0.00 86 1004.6
20260505113004 19 175 4.8 14.5 0.00 0.00 0.00 86 1004.6
20260505112331 20 176 8.0 14.5 0.00 0.00 0.00 86 1004.5
20260505111604 19 157 6.4 19.3 0.00 0.00 0.00 85 1004.4
20260505111431 20 173 8.0 14.5 0.00 0.00 0.00 85 1004.4
20260505110531 20 169 9.7 16.1 0.00 0.00 0.00 85 1004.3
20260505101605 19 163 6.4 19.3 0.00 0.00 0.00 84 1004.5
20260505101131 20 179 9.7 19.3 0.00 0.00 0.00 84 1004.4
20260505100231 20 176 8.0 16.1 0.00 0.00 0.00 84 1004.4
20260505100105 19 192 11.3 14.5 0.00 0.00 0.00 84 1004.4
20260505095331 20 173 8.0 17.7 0.00 0.00 0.00 84 1004.3
20260505094607 19 173 6.4 17.7 0.00 0.00 0.00 83 1004.5
20260505093531 20 166 9.7 17.7 0.00 0.00 0.00 83 1004.5
20260505093112 19 163 9.7 17.7 0.00 0.00 0.00 83 1004.5
20260505092631 20 169 8.0 14.5 0.00 0.00 0.00 83 1004.5
20260505091731 20 176 9.7 17.7 0.00 0.00 0.00 83 1004.7
20260505091509 19 154 8.0 17.7 0.00 0.00 0.00 83 1004.9
20260505090831 20 173 9.7 17.7 0.00 0.00 0.00 83 1004.8
20260505085931 20 174 12.9 24.1 0.00 0.00 0.00 82 1004.8
20260505084506 19 173 6.4 22.5 0.00 0.00 0.00 82 1004.9
20260505083231 19 164 11.3 22.5 0.00 0.00 0.00 83 1004.7
20260505083005 19 165 12.9 22.5 0.00 0.00 0.00 82 1004.8
20260505082331 19 168 9.7 20.9 0.00 0.00 0.00 82 1004.8
20260505081504 19 174 12.9 20.9 0.00 0.00 0.00 82 1005.0
20260505081431 19 163 8.0 20.9 0.00 0.00 0.00 82 1005.0
20260505080531 19 161 9.7 16.1 0.00 0.00 0.00 82 1005.1
20260505080005 19 173 11.3 16.1 0.00 0.00 0.00 82 1005.2
20260505074731 19 160 8.0 16.1 0.00 0.00 0.00 82 1005.2
20260505074613 19 167 9.7 12.9 0.00 0.00 0.00 82 1005.2
20260505073831 19 167 8.0 14.5 0.00 0.00 0.00 81 1005.3
20260505073004 19 137 8.0 14.5 0.00 0.00 0.00 81 1005.5
20260505072031 20 153 6.4 17.7 0.00 0.00 0.00 80 1005.5
20260505071505 19 163 6.4 16.1 0.00 0.00 0.00 80 1005.7
20260505071131 20 159 8.0 12.9 0.00 0.00 0.00 80 1005.7
20260505070104 19 160 6.4 12.9 0.00 0.00 0.00 79 1005.9
20260505065331 20 159 8.0 12.9 0.00 0.00 0.00 79 1005.8
20260505064505 19 128 8.0 16.1 0.00 0.00 0.00 79 1006.1
20260505064431 20 158 8.0 16.1 0.00 0.00 0.00 79 1005.9
20260505063531 20 158 6.4 11.3 0.00 0.00 0.00 78 1006.1
20260505063005 19 165 6.4 12.9 0.00 0.00 0.00 78 1006.3
20260505062631 20 161 6.4 11.3 0.00 0.00 0.00 78 1006.1
20260505061517 19 193 4.8 9.7 0.00 0.00 0.00 77 1006.4
20260505060831 20 163 4.8 9.7 0.00 0.00 0.00 76 1006.3
20260505060004 20 161 4.8 9.7 0.00 0.00 0.00 75 1006.6
20260505055931 20 164 6.4 9.7 0.00 0.00 0.00 75 1006.5
20260505055031 20 161 6.4 9.7 0.00 0.00 0.00 74 1006.5
20260505054504 20 186 3.2 9.7 0.00 0.00 0.00 74 1006.7
20260505054131 20 160 6.4 11.3 0.00 0.00 0.00 74 1006.5
20260505053231 20 159 6.4 12.9 0.00 0.00 0.00 73 1006.7
20260505053004 20 165 6.4 12.9 0.00 0.00 0.00 74 1006.8
20260505052331 20 164 6.4 11.3 0.00 0.00 0.00 73 1006.7
20260505051607 20 206 6.4 12.9 0.00 0.00 0.00 73 1006.9
20260505051431 20 156 6.4 14.5 0.00 0.00 0.00 73 1006.6
20260505050531 20 156 6.4 11.3 0.00 0.00 0.00 73 1006.7
20260505050104 20 177 6.4 9.7 0.00 0.00 0.00 72 1006.9
20260505041603 20 155 4.8 9.7 0.00 0.00 0.00 70 1007.2
20260505041131 20 156 4.8 8.0 0.00 0.00 0.00 70 1007.1
20260505040230 20 154 4.8 8.0 0.00 0.00 0.00 70 1007.1
20260505035331 20 149 4.8 8.0 0.00 0.00 0.00 70 1007.2
20260505034605 20 152 4.8 9.7 0.00 0.00 0.00 70 1007.3
20260505034431 20 150 3.2 9.7 0.00 0.00 0.00 70 1007.1
20260505033531 20 156 3.2 6.4 0.00 0.00 0.00 70 1007.3
20260505033003 20 159 0.0 6.4 0.00 0.00 0.00 70 1007.5
20260505032631 20 155 1.6 6.4 0.00 0.00 0.00 70 1007.3
20260505031731 20 163 1.6 8.0 0.00 0.00 0.00 70 1007.2
20260505031619 20 189 3.2 8.0 0.00 0.00 0.00 70 1007.4
20260505030830 20 164 0.0 4.8 0.00 0.00 0.00 70 1007.1
20260505030005 20 165 0.0 3.2 0.00 0.00 0.00 69 1007.2
20260505025931 20 164 1.6 4.8 0.00 0.00 0.00 69 1007.0
20260505025031 20 164 1.6 4.8 0.00 0.00 0.00 69 1006.9
20260505024510 20 165 0.0 4.8 0.00 0.00 0.00 69 1007.2
20260505024131 20 164 0.0 4.8 0.00 0.00 0.00 69 1007.0
20260505023104 20 165 0.0 0.0 0.00 0.00 0.00 67 1007.2
20260505022331 21 164 0.0 3.2 0.00 0.00 0.00 67 1006.9
20260505021509 20 165 1.6 4.8 0.00 0.00 0.00 67 1006.9
20260505021431 21 164 3.2 6.4 0.00 0.00 0.00 67 1006.7
20260505020530 21 164 1.6 6.4 0.00 0.00 0.00 66 1006.5
20260505020004 21 165 0.0 3.2 0.00 0.00 0.00 65 1006.6
20260505015630 21 164 0.0 3.2 0.00 0.00 0.00 64 1006.5
20260505014730 22 164 3.2 6.4 0.00 0.00 0.00 64 1006.3
20260505014607 21 165 0.0 6.4 0.00 0.00 0.00 64 1006.4
20260505013830 22 164 1.6 6.4 0.00 0.00 0.00 63 1006.2
20260505013004 22 165 1.6 6.4 0.00 0.00 0.00 63 1006.6
20260505012931 22 164 3.2 6.4 0.00 0.00 0.00 63 1006.4
20260505012030 22 175 6.4 9.7 0.00 0.00 0.00 62 1006.2
20260505011507 22 172 4.8 12.9 0.00 0.00 0.00 62 1006.4
20260505011130 22 171 6.4 12.9 0.00 0.00 0.00 62 1006.2
20260505010230 22 175 8.0 11.3 0.00 0.00 0.00 61 1006.1
20260505010105 22 193 6.4 11.3 0.00 0.00 0.00 61 1006.4
20260505005331 23 175 8.0 12.9 0.00 0.00 0.00 60 1006.2
20260505004606 23 182 4.8 14.5 0.00 0.00 0.00 60 1006.3
20260505004430 23 170 8.0 12.9 0.00 0.00 0.00 59 1006.1
20260505003530 23 176 9.7 14.5 0.00 0.00 0.00 58 1006.2
20260505003004 23 205 6.4 19.3 0.00 0.00 0.00 58 1006.5
20260505002630 23 171 9.7 16.1 0.00 0.00 0.00 58 1006.2
20260505001730 23 175 11.3 17.7 0.00 0.00 0.00 58 1006.4
20260505001504 23 180 11.3 24.1 0.00 0.00 0.00 58 1006.7
20260505000830 23 169 11.3 24.1 0.00 0.00 0.00 57 1006.4
20260505000108 23 159 6.4 17.7 0.00 0.00 0.00 58 1006.7
20260504235930 24 179 9.7 17.7 0.00 0.00 0.00 58 1006.5
20260504235031 24 167 8.0 16.1 0.00 0.00 0.00 58 1006.5
20260504234605 24 174 8.0 19.3 0.00 0.00 0.00 58 1006.7
20260504234130 24 176 9.7 19.3 0.00 0.00 0.00 57 1006.6
20260504233230 24 167 8.0 19.3 0.00 0.00 0.00 56 1006.6
20260504233006 24 155 9.7 19.3 0.00 0.00 0.00 57 1006.8
20260504232330 25 173 9.7 17.7 0.00 0.00 0.00 56 1006.7
20260504231504 24 178 8.0 16.1 0.00 0.00 0.00 57 1006.9
20260504230530 25 163 12.9 22.5 0.00 0.00 0.00 56 1006.8
20260504230111 25 159 14.5 25.7 0.00 0.00 0.00 55 1007.0
20260504225630 25 165 14.5 24.1 0.00 0.00 0.00 55 1006.9
20260504224730 25 162 14.5 27.4 0.00 0.00 0.00 55 1007.1
20260504224604 25 182 12.9 27.4 0.00 0.00 0.00 54 1007.3
20260504223830 26 160 12.9 22.5 0.00 0.00 0.00 54 1007.1
20260504223104 25 161 11.3 22.5 0.00 0.00 0.00 53 1007.3
20260504222931 26 165 12.9 22.5 0.00 0.00 0.00 53 1007.2